GW0148 Weather Reports


time (UTC)temp
C
wind
direction
speed
KPH
gust
KPH
rain 1hr
cm
rain 24hr
cm
rain mn
cm
humidity
%
barometer
mb
20260503174225 13 212 9.7 25.7 0.00 0.00 0.00 40 1015.6
20260503173210 13 185 6.4 24.1 0.00 0.00 0.00 45 1015.5
20260503172231 13 202 8.0 20.9 0.00 0.00 0.00 41 1015.8
20260503150720 10 209 8.0 19.3 0.00 0.00 0.00 49 1016.9
20260503131235 7 215 3.2 9.7 0.00 0.00 0.00 68 1017.2
20260503120135 4 191 3.2 9.7 0.00 0.00 0.00 86 1017.0
20260503090327 2 162 0.0 0.0 0.00 0.00 0.00 91 1015.7
20260503081214 2 165 0.0 0.0 0.00 0.00 0.00 91 1015.6
20260503080225 2 188 0.0 0.0 0.00 0.00 0.00 90 1015.5
20260503072146 3 189 0.0 0.0 0.00 0.00 0.00 86 1015.3
20260503071128 3 160 0.0 0.0 0.00 0.00 0.00 84 1015.2
20260503070142 3 171 0.0 4.8 0.00 0.00 0.00 84 1015.3
20260503060224 3 223 0.0 6.4 0.00 0.00 0.00 81 1015.2
20260503054022 3 213 0.0 3.2 0.00 0.00 0.00 80 1015.2
20260503050658 4 217 0.0 3.2 0.00 0.00 0.00 79 1015.3
20260503045643 5 205 0.0 3.2 0.00 0.00 0.00 79 1015.4
20260503043557 5 201 0.0 6.4 0.00 0.00 0.00 78 1015.4
20260503042606 5 193 0.0 6.4 0.00 0.00 0.00 77 1015.4
20260503041550 5 206 0.0 3.2 0.00 0.00 0.00 77 1015.4
20260503040549 5 227 0.0 3.2 0.00 0.00 0.00 76 1015.4
20260503035603 5 195 0.0 1.6 0.00 0.00 0.00 76 1015.4
20260503034552 5 208 0.0 0.0 0.00 0.00 0.00 75 1015.4
20260503033526 5 206 0.0 0.0 0.00 0.00 0.00 75 1015.4
20260503031350 5 205 0.0 0.0 0.00 0.00 0.00 76 1015.4
20260503030343 5 205 0.0 0.0 0.00 0.00 0.00 75 1015.4
20260503025400 5 216 0.0 0.0 0.00 0.00 0.00 75 1015.4
20260503024412 5 206 0.0 0.0 0.00 0.00 0.00 76 1015.5
20260503023341 5 220 0.0 0.0 0.00 0.00 0.00 75 1015.6
20260503022327 5 209 0.0 0.0 0.00 0.00 0.00 75 1015.7
20260503021317 5 195 0.0 0.0 0.00 0.00 0.00 76 1015.7
20260503020330 5 186 0.0 0.0 0.00 0.00 0.00 76 1015.7
20260503015315 5 184 0.0 0.0 0.00 0.00 0.00 75 1015.7
20260503014338 5 199 0.0 0.0 0.00 0.00 0.00 75 1015.7
20260503013329 5 202 0.0 1.6 0.00 0.00 0.00 75 1015.6
20260503012343 5 206 0.0 1.6 0.00 0.00 0.00 74 1015.5
20260503011403 5 206 0.0 0.0 0.00 0.00 0.00 75 1015.5
20260503005201 6 199 0.0 3.2 0.00 0.00 0.00 74 1015.3
20260503004130 6 210 0.0 1.6 0.00 0.00 0.00 73 1015.2
20260503003108 6 285 0.0 0.0 0.00 0.00 0.00 73 1014.9
20260503001028 6 193 0.0 3.2 0.00 0.00 0.00 71 1014.9
20260503000043 6 288 1.6 8.0 0.00 0.03 0.00 70 1014.8
20260502235009 6 286 1.6 11.3 0.00 0.08 0.00 70 1014.7
20260502232824 6 277 1.6 9.7 0.00 0.08 0.00 70 1014.6
20260502231835 7 231 3.2 9.7 0.00 0.08 0.00 70 1014.5
20260502225727 7 309 6.4 20.9 0.00 0.08 0.00 68 1014.4
20260502224715 7 230 3.2 16.1 0.00 0.08 0.00 68 1014.4
20260502223724 7 349 1.6 12.9 0.00 0.08 0.00 68 1014.4
20260502222733 7 274 1.6 12.9 0.00 0.08 0.00 69 1014.2
20260502221738 7 254 4.8 12.9 0.00 0.08 0.00 68 1014.2
20260502220758 7 293 3.2 14.5 0.00 0.08 0.00 68 1014.2
20260502215731 7 333 1.6 14.5 0.00 0.08 0.00 68 1014.0
20260502214709 8 312 1.6 9.7 0.00 0.08 0.00 69 1013.9
20260502213640 8 281 3.2 12.9 0.00 0.10 0.00 68 1013.9
20260502212628 8 255 3.2 14.5 0.00 0.10 0.00 67 1013.8
20260502210530 8 5 0.0 1.6 0.00 0.10 0.00 66 1013.6
20260502204429 8 349 0.0 8.0 0.00 0.10 0.00 68 1013.6
20260502203435 8 11 1.6 9.7 0.00 0.10 0.00 68 1013.7
20260502202454 7 303 4.8 12.9 0.00 0.10 0.00 67 1013.7
20260502201431 7 18 6.4 20.9 0.00 0.10 0.00 67 1013.7
20260502200438 8 126 3.2 20.9 0.00 0.10 0.00 63 1013.6
20260502195439 9 188 0.0 11.3 0.00 0.10 0.00 64 1013.6
20260502194503 8 313 3.2 12.9 0.00 0.10 0.00 63 1013.6
20260502193516 8 298 3.2 12.9 0.00 0.10 0.00 63 1013.7
20260502192505 9 271 3.2 14.5 0.00 0.10 0.00 61 1013.8
20260502191503 9 302 4.8 14.5 0.00 0.10 0.00 62 1013.8
20260502190527 9 302 3.2 19.3 0.00 0.10 0.00 60 1013.9
20260502185543 9 300 3.2 19.3 0.00 0.10 0.00 61 1014.1
20260502182231 8 228 4.8 16.1 0.00 0.10 0.00 55 1014.2
20260502181240 8 314 4.8 16.1 0.00 0.10 0.00 56 1014.2
20260502180223 9 201 0.0 9.7 0.00 0.10 0.00 57 1014.2